When you browse on this site, cookies collect data to enhance your experience and personalize the content and advertising you see.
Visit our Privacy Policy to learn more. By continuing to use the site, you agree to this use of cookies and data.
  • Em Portugal
  • Lista de países
  • Para 7 dias
  • Temperatura da água
  • Mapas de satélite
  • Mapa do tempo
  • Widgets de tempo
  • user-avatar
    Iniciar Sessão

    Previsão horária em Kandahar

    Hoje, 20 Julho, Sábado

    Tempo Temperatura Precipitação Vento Pressão Humidade
    00:00 +31°C° 0 mm 3 m/s 667 mmHg 11%
    01:00 +32°C° 0 mm 4 m/s 668 mmHg 13%
    02:00 +29°C° 0 mm 4 m/s 667 mmHg 25%
    03:00 +28°C° 0 mm 3 m/s 667 mmHg 37%
    04:00 +27°C° 0 mm 2 m/s 668 mmHg 53%
    05:00 +28°C° 0 mm 2 m/s 669 mmHg 49%
    06:00 +30°C° 0 mm 2 m/s 670 mmHg 46%
    07:00 +32°C° 0 mm 2 m/s 671 mmHg 42%
    08:00 +35°C° 0 mm 2 m/s 671 mmHg 37%
    09:00 +37°C° 0 mm 2 m/s 671 mmHg 31%
    10:00 +38°C° 0 mm 2 m/s 671 mmHg 27%
    11:00 +40°C° 0 mm 2 m/s 671 mmHg 23%
    12:00 +42°C° 0 mm 1 m/s 670 mmHg 18%
    13:00 +43°C° 0 mm 1 m/s 670 mmHg 14%
    14:00 +44°C° 0 mm 1 m/s 670 mmHg 12%
    15:00 +45°C° 0 mm 2 m/s 669 mmHg 11%
    16:00 +46°C° 0 mm 3 m/s 669 mmHg 9%
    17:00 +44°C° 0 mm 3 m/s 669 mmHg 11%
    18:00 +40°C° 0 mm 2 m/s 668 mmHg 12%
    19:00 +38°C° 0 mm 2 m/s 668 mmHg 13%
    20:00 +36°C° 0 mm 3 m/s 668 mmHg 15%
    21:00 +35°C° 0 mm 3 m/s 668 mmHg 17%
    22:00 +34°C° 0 mm 4 m/s 668 mmHg 19%
    23:00 +33°C° 0 mm 3 m/s 668 mmHg 27%

    Amanhã, 21 Julho, Domingo

    Tempo Temperatura Precipitação Vento Pressão Humidade
    00:00 +30°C° 0 mm 2 m/s 668 mmHg 35%
    01:00 +28°C° 0 mm 1 m/s 668 mmHg 43%
    02:00 +28°C° 0 mm 1 m/s 668 mmHg 45%
    03:00 +28°C° 0 mm 1 m/s 668 mmHg 46%
    04:00 +27°C° 0 mm 1 m/s 668 mmHg 47%
    05:00 +29°C° 0 mm 1 m/s 669 mmHg 42%
    06:00 +31°C° 0 mm 2 m/s 670 mmHg 38%
    07:00 +34°C° 0 mm 2 m/s 671 mmHg 33%
    08:00 +35°C° 0 mm 2 m/s 671 mmHg 30%
    09:00 +37°C° 0 mm 2 m/s 671 mmHg 27%
    10:00 +39°C° 0 mm 2 m/s 671 mmHg 24%
    11:00 +40°C° 0 mm 1 m/s 671 mmHg 20%
    12:00 +42°C° 0 mm 1 m/s 671 mmHg 17%
    13:00 +43°C° 0 mm 1 m/s 670 mmHg 14%
    14:00 +45°C° 0 mm 2 m/s 670 mmHg 13%
    15:00 +45°C° 0 mm 3 m/s 669 mmHg 12%
    16:00 +46°C° 0 mm 3 m/s 669 mmHg 10%
    17:00 +44°C° 0 mm 3 m/s 669 mmHg 11%
    18:00 +42°C° 0 mm 3 m/s 668 mmHg 12%
    19:00 +39°C° 0 mm 3 m/s 668 mmHg 13%
    20:00 +37°C° 0 mm 4 m/s 668 mmHg 16%
    21:00 +36°C° 0 mm 5 m/s 668 mmHg 19%
    22:00 +34°C° 0 mm 5 m/s 668 mmHg 22%
    23:00 +33°C° 0 mm 4 m/s 668 mmHg 30%

    Depois de amanhã, 22 Julho, Segunda-feira

    Tempo Temperatura Precipitação Vento Pressão Humidade
    00:00 +30°C° 0 mm 3 m/s 668 mmHg 38%
    01:00 +28°C° 0 mm 2 m/s 668 mmHg 46%
    02:00 +28°C° 0 mm 2 m/s 668 mmHg 46%
    03:00 +28°C° 0 mm 2 m/s 668 mmHg 46%
    04:00 +28°C° 0 mm 3 m/s 668 mmHg 46%
    05:00 +30°C° 0 mm 3 m/s 669 mmHg 42%
    06:00 +31°C° 0 mm 3 m/s 670 mmHg 37%
    07:00 +34°C° 0 mm 3 m/s 670 mmHg 33%
    08:00 +36°C° 0 mm 3 m/s 670 mmHg 30%
    09:00 +37°C° 0 mm 2 m/s 670 mmHg 27%
    10:00 +39°C° 0 mm 2 m/s 670 mmHg 24%
    11:00 +40°C° 0 mm 2 m/s 670 mmHg 20%
    12:00 +42°C° 0 mm 1 m/s 669 mmHg 17%
    13:00 +43°C° 0 mm 1 m/s 669 mmHg 14%
    14:00 +44°C° 0 mm 1 m/s 669 mmHg 13%
    15:00 +45°C° 0 mm 2 m/s 668 mmHg 11%
    16:00 +46°C° 0 mm 2 m/s 668 mmHg 10%
    17:00 +42°C° 0 mm 2 m/s 667 mmHg 11%
    18:00 +40°C° 0 mm 2 m/s 667 mmHg 13%
    19:00 +37°C° 0 mm 2 m/s 666 mmHg 14%
    20:00 +36°C° 0 mm 2 m/s 666 mmHg 15%
    21:00 +34°C° 0 mm 1 m/s 667 mmHg 16%
    22:00 +33°C° 0 mm 1 m/s 667 mmHg 17%
    23:00 +32°C° 0 mm 2 m/s 667 mmHg 19%

    23 Julho, Terça-feira

    Tempo Temperatura Precipitação Vento Pressão Humidade
    00:00 +31°C° 0 mm 2 m/s 667 mmHg 21%
    01:00 +30°C° 0 mm 3 m/s 667 mmHg 23%
    02:00 +29°C° 0 mm 2 m/s 666 mmHg 28%
    03:00 +28°C° 0 mm 2 m/s 666 mmHg 33%
    04:00 +27°C° 0 mm 1 m/s 666 mmHg 38%
    05:00 +29°C° 0 mm 2 m/s 667 mmHg 36%
    06:00 +31°C° 0 mm 2 m/s 668 mmHg 34%
    07:00 +34°C° 0 mm 3 m/s 669 mmHg 33%
    08:00 +36°C° 0 mm 2 m/s 669 mmHg 28%
    09:00 +38°C° 0 mm 2 m/s 670 mmHg 23%
    10:00 +40°C° 0 mm 1 m/s 670 mmHg 19%
    11:00 +42°C° 0 mm 2 m/s 670 mmHg 16%
    12:00 +43°C° 0 mm 2 m/s 669 mmHg 13%
    13:00 +46°C° 0 mm 2 m/s 669 mmHg 9%
    14:00 +46°C° 0 mm 3 m/s 669 mmHg 9%
    15:00 +47°C° 0 mm 3 m/s 668 mmHg 8%
    16:00 +48°C° 0 mm 4 m/s 668 mmHg 8%
    17:00 +45°C° 0 mm 4 m/s 668 mmHg 8%
    18:00 +43°C° 0 mm 5 m/s 667 mmHg 8%
    19:00 +41°C° 0 mm 5 m/s 667 mmHg 9%
    20:00 +38°C° 0 mm 4 m/s 667 mmHg 10%
    21:00 +37°C° 0 mm 3 m/s 667 mmHg 10%
    22:00 +35°C° 0 mm 3 m/s 667 mmHg 11%
    23:00 +34°C° 0 mm 2 m/s 667 mmHg 12%

    24 Julho, Quarta-feira

    Tempo Temperatura Precipitação Vento Pressão Humidade
    00:00 +32°C° 0 mm 2 m/s 667 mmHg 12%
    01:00 +31°C° 0 mm 2 m/s 666 mmHg 13%
    02:00 +30°C° 0 mm 2 m/s 666 mmHg 14%
    03:00 +29°C° 0 mm 1 m/s 666 mmHg 15%
    04:00 +28°C° 0 mm 1 m/s 666 mmHg 16%
    05:00 +30°C° 0 mm 1 m/s 667 mmHg 14%
    06:00 +32°C° 0 mm 1 m/s 668 mmHg 13%
    07:00 +34°C° 0 mm 1 m/s 669 mmHg 12%
    08:00 +37°C° 0 mm 2 m/s 669 mmHg 11%
    09:00 +39°C° 0 mm 2 m/s 669 mmHg 9%
    10:00 +41°C° 0 mm 2 m/s 669 mmHg 8%
    11:00 +44°C° 0 mm 3 m/s 669 mmHg 7%
    12:00 +45°C° 0 mm 4 m/s 669 mmHg 6%
    13:00 +48°C° 0 mm 5 m/s 668 mmHg 5%
    14:00 +48°C° 0 mm 5 m/s 668 mmHg 5%
    15:00 +48°C° 0 mm 6 m/s 668 mmHg 5%
    16:00 +48°C° 0 mm 6 m/s 667 mmHg 5%
    17:00 +45°C° 0 mm 6 m/s 667 mmHg 6%
    18:00 +42°C° 0 mm 5 m/s 666 mmHg 7%
    19:00 +40°C° 0 mm 4 m/s 666 mmHg 8%
    20:00 +37°C° 0 mm 4 m/s 666 mmHg 9%
    21:00 +35°C° 0 mm 3 m/s 666 mmHg 10%
    22:00 +32°C° 0 mm 2 m/s 666 mmHg 11%
    23:00 +31°C° 0 mm 2 m/s 666 mmHg 12%

    25 Julho, Quinta-feira

    Tempo Temperatura Precipitação Vento Pressão Humidade
    00:00 +30°C° 0 mm 1 m/s 665 mmHg 13%
    01:00 +29°C° 0 mm 1 m/s 665 mmHg 13%
    02:00 +28°C° 0 mm 1 m/s 665 mmHg 14%
    03:00 +28°C° 0 mm 1 m/s 665 mmHg 14%
    04:00 +27°C° 0 mm 1 m/s 665 mmHg 15%
    05:00 +29°C° 0 mm 1 m/s 666 mmHg 13%
    06:00 +32°C° 0 mm 1 m/s 667 mmHg 11%
    07:00 +34°C° 0 mm 1 m/s 668 mmHg 10%
    08:00 +36°C° 0 mm 1 m/s 668 mmHg 9%
    09:00 +39°C° 0 mm 1 m/s 668 mmHg 8%
    10:00 +41°C° 0 mm 1 m/s 668 mmHg 7%
    11:00 +42°C° 0 mm 2 m/s 668 mmHg 7%
    12:00 +43°C° 0 mm 2 m/s 668 mmHg 6%
    13:00 +46°C° 0 mm 2 m/s 667 mmHg 5%
    14:00 +46°C° 0 mm 3 m/s 667 mmHg 5%
    15:00 +47°C° 0 mm 3 m/s 666 mmHg 5%
    16:00 +47°C° 0 mm 3 m/s 666 mmHg 5%
    17:00 +44°C° 0 mm 3 m/s 665 mmHg 6%
    18:00 +42°C° 0 mm 3 m/s 665 mmHg 7%
    19:00 +38°C° 0 mm 3 m/s 664 mmHg 9%
    20:00 +37°C° 0 mm 3 m/s 664 mmHg 10%
    21:00 +35°C° 0 mm 2 m/s 664 mmHg 11%
    22:00 +32°C° 0 mm 2 m/s 664 mmHg 12%
    23:00 +31°C° 0 mm 2 m/s 664 mmHg 13%
    Mostrar mais